Lid_Strength_Index
4 3 3 3 3 3 2 1 -1 -2 -2 -2 -2 -2 -2 -2 -2 1 4 1 0 -1 -0 1 1 2 2 5 5 7 11 13 11 11 10 10 9 8 7 6 6 5 5 4 2
3 3 3 3 3 2 1 -1 -2 -2 -2 -2 -2 -2 -2 -2 1 3 -0 -2 -2 -2 1 3 5 4 6 6 6 8 12 11 9 9 9 11 10 9 7 7 7 6 4 3 3
3 3 3 2 2 0 -2 -2 -2 -2 -2 -2 -2 -2 -2 -1 4 4 -2 -2 -2 -1 1 2 3 5 8 6 7 8 12 10 9 8 9 11 10 10 7 9 7 7 6 4 4
3 3 2 1 -1 -2 -2 -2 -2 -2 -2 -2 -2 -2 -1 1 11 3 -2 -2 -2 -0 2 3 4 7 9 10 7 10 8 8 8 8 8 10 10 10 9 7 9 5 4 4 4
3 2 1 -1 -2 -2 -2 -2 -2 -2 -2 -2 -2 -2 1 6 6 1 -1 -1 -0 1 3 5 6 7 10 8 8 10 9 8 7 8 8 9 10 11 10 9 6 4 4 5 4
2 1 -0 -2 -2 -2 -2 -2 -2 -2 -2 -2 -2 -1 3 10 2 1 0 1 1 2 3 4 6 5 8 8 9 8 8 8 7 8 8 9 10 10 9 6 6 5 5 5 4
1 -0 -2 -2 -2 -2 -2 -2 -2 -2 -2 -2 -2 0 4 6 1 2 0 1 1 2 4 3 3 6 6 9 6 8 10 9 9 8 9 8 11 12 10 6 7 6 5 5 4
0 -1 -2 -2 -2 -2 -2 -2 -2 -2 -2 -2 -2 1 7 1 -0 2 2 1 1 1 2 3 3 5 7 6 8 10 10 14 10 9 8 10 13 9 9 9 7 7 6 5 5
-1 -1 -1 -2 -2 -2 -2 -2 -2 -2 -2 -2 2 3 8 1 3 2 2 3 2 2 2 2 3 6 7 10 12 12 16 14 13 8 10 11 12 10 9 10 10 7 6 6 5
-1 -2 -1 -1 -1 -2 -2 -2 -2 -1 -0 -0 1 6 5 6 3 3 3 2 4 4 5 6 7 10 10 12 17 16 16 14 14 12 10 12 12 10 10 10 11 10 11 9 7
-2 -1 -1 -1 -1 -2 0 3 5 6 4 6 7 8 5 4 2 4 3 3 4 6 11 8 11 14 12 12 12 12 13 14 12 12 13 14 13 11 10 11 12 10 11 10 8
-2 -1 -1 -1 -1 -1 3 5 4 3 8 5 6 6 5 4 7 5 3 7 8 11 9 11 14 11 10 9 11 12 14 14 12 11 13 15 14 12 11 12 11 11 10 11 12
-1 -1 -1 -1 -1 3 5 4 1 2 8 8 7 7 8 5 7 7 4 7 9 11 11 13 11 10 10 11 13 13 14 14 14 13 13 15 16 14 12 13 12 12 12 13 13
-1 -1 -1 -1 3 5 6 2 2 2 16 12 10 7 7 6 9 4 4 7 8 12 11 11 9 11 12 13 12 15 12 12 14 15 17 15 19 17 13 12 13 13 13 13 13
-1 -1 -1 -0 5 6 4 3 5 8 22 12 10 4 6 8 7 7 3 6 10 11 10 13 11 12 12 12 11 13 11 13 13 16 18 17 19 18 15 13 15 13 13 14 14
-1 -1 -1 2 4 4 4 5 8 19 23 17 11 9 10 8 8 7 7 5 7 10 11 11 9 10 10 10 10 11 12 13 14 16 20 18 19 19 18 15 15 13 14 14 15
-1 -1 2 3 6 3 6 9 19 23 16 17 13 10 10 11 10 9 10 11 13 16 17 13 12 10 9 11 10 11 14 19 21 22 22 19 20 19 15 15 14 13 15 15 15
-1 1 2 3 4 6 9 16 23 24 22 13 12 12 13 11 11 11 12 13 10 12 14 17 17 12 9 11 13 13 14 19 25 24 21 18 20 18 14 14 15 15 15 15 16
1 5 5 4 5 7 13 22 21 19 11 12 13 16 16 11 12 12 13 13 11 11 15 15 16 10 9 9 10 12 15 14 19 23 21 19 18 15 14 15 15 16 16 16 17
6 6 5 4 6 10 16 19 20 12 10 11 19 14 19 18 13 13 13 10 11 9 10 13 16 11 10 9 9 11 11 16 18 24 24 20 19 18 16 15 15 16 17 17 17
7 9 5 5 8 14 20 25 16 10 9 12 13 14 14 14 13 13 14 11 10 10 9 12 14 14 11 13 14 13 15 15 15 17 22 22 20 14 14 14 14 15 16 16 17
8 11 4 7 15 21 21 14 9 10 8 9 10 11 14 14 14 15 14 12 10 10 12 11 14 16 14 10 10 11 13 14 17 19 19 18 18 12 12 13 13 13 14 16 17
9 8 6 8 20 23 15 12 10 11 10 10 10 9 9 12 15 13 13 10 10 10 11 11 17 19 16 14 12 14 12 12 13 14 18 19 18 11 11 12 12 12 13 15 16
11 15 12 11 12 17 18 14 13 9 10 9 9 8 10 13 13 15 12 10 8 9 8 10 14 19 20 17 15 14 13 13 15 19 16 16 16 13 12 12 12 12 12 13 15
9 13 11 15 14 14 13 13 17 14 10 9 11 10 11 15 15 13 11 10 9 9 10 12 16 15 16 16 15 16 13 13 17 19 18 15 15 13 12 13 12 12 13 14 14
11 10 9 12 10 12 13 14 15 15 10 11 13 11 11 14 14 13 11 11 11 10 12 12 18 16 17 16 15 17 15 15 17 15 16 17 16 12 12 12 12 12 12 13 13
9 8 9 9 11 15 13 11 12 11 9 9 10 11 13 13 11 10 11 11 12 12 13 15 19 20 22 19 18 21 17 14 14 14 16 17 14 13 13 13 12 12 12 12 12